sat.trackr.live / text

‹ back to catalog

STARLINK-35186

NORAD 65611 · 2025-207V

PAYLOAD ACTIVE UNKNOWN

§ Identity

Operator
Country
US
Launch date
2025-09-13
Launch site
AFWTR
Launch vehicle
Mass (kg)
RCS (m²)

Purposes: comms

External: N2YO · Heavens-Above · Gunter

§ Orbital elements

Epoch: 2026-05-25T03:51:38.666880Z

Period
95.64 min
Inclination
97.4469°
Eccentricity
0.0001839
Mean motion
15.05655168 rev/d
Perigee alt
548.2 km
Apogee alt
550.8 km
Semi-major
6,927.6 km
B*
1.9971e-4
RAAN
213.6045°
Arg perigee
128.9097°
Mean anomaly
231.2294°
Rev number
3,976

§ Raw data

STARLINK-351861 65611U 25207V   26145.16086420  .00002825  00000+0  19971-3 0  99962 65611  97.4469 213.6045 0001839 128.9097 231.2294 15.05655168 39768

JSON: /api/v1/satellites/65611 · /tle

For live sub-satellite position, see the globe view (requires WebGL).

§ Visibility from observer

Set your observer location to see the next 7 days of passes ≥ 10°. The values pass through the URL so the page stays shareable.

No JS? Fill the form by hand. The geolocation button needs JavaScript.